CDT,Max TemperatureF,Mean TemperatureF,Min TemperatureF,Max Dew PointF,MeanDew PointF,Min DewpointF,Max Humidity, Mean Humidity, Min Humidity, Max Sea Level PressureIn, Mean Sea Level PressureIn, Min Sea Level PressureIn, Max VisibilityMiles, Mean VisibilityMiles, Min VisibilityMiles, Max Wind SpeedMPH, Mean Wind SpeedMPH, Max Gust SpeedMPH,PrecipitationIn, CloudCover, Events, WindDirDegrees
2013-5-1,82,70,57,68,60,53,89,71,52,30.05,30.02,29.94,10,10,10,10,5,,0.00,3,,109
2013-5-2,75,66,55,63,58,54,93,81,57,30.13,30.07,30.03,10,8,3,10,4,,0.13,4,Rain,187
2013-5-3,54,48,41,52,40,37,93,87,81,30.02,29.91,29.83,10,6,2,14,10,18,2.23,8,Rain,300
2013-5-4,53,44,37,43,37,33,93,77,57,29.97,29.92,29.88,10,10,6,9,6,,0.00,7,Rain,199
2013-5-5,55,48,41,52,46,37,94,86,74,29.96,29.92,29.88,10,10,6,15,7,,0.38,6,Rain,312
2013-5-6,70,60,51,56,53,50,94,80,58,29.97,29.90,29.86,10,10,10,16,7,21,0.00,7,,352
2013-5-7,75,65,55,61,57,52,93,74,53,30.02,29.99,29.95,10,10,9,10,3,,0.01,2,,23
2013-5-8,81,68,55,64,58,53,94,77,47,30.06,30.01,29.97,10,8,1,12,2,,0.00,2,Rain-Thunderstorm,205
2013-5-9,81,70,60,63,60,58,94,74,45,30.01,29.95,29.88,10,8,2,18,5,26,0.00,2,,193
2013-5-10,80,71,63,65,62,56,94,79,58,29.99,29.88,29.84,10,8,2,12,6,16,0.23,5,Rain-Thunderstorm,270
2013-5-11,77,66,55,58,51,37,90,66,40,30.14,30.01,29.97,10,10,9,14,6,20,0.04,3,Rain,323
2013-5-12,70,58,45,48,36,28,80,50,21,30.25,30.18,30.13,10,10,10,13,4,16,0.00,0,,332
2013-5-13,73,59,45,54,44,37,82,61,33,30.26,30.18,30.08,10,10,10,9,2,22,0.00,2,,192
2013-5-14,89,73,57,63,58,52,87,59,36,30.05,29.98,29.90,10,10,10,16,7,22,0.00,0,,210
2013-5-15,84,74,64,64,60,56,75,59,46,30.03,29.96,29.90,10,10,10,17,10,24,0.00,0,,212
2013-5-16,75,70,66,66,61,59,84,72,58,29.97,29.92,29.88,10,10,6,7,4,,0.03,5,Rain,180
2013-5-17,73,68,64,68,65,63,94,88,76,29.96,29.92,29.89,10,5,2,8,3,,1.15,7,Rain,80
2013-5-18,84,72,62,72,64,61,94,86,60,30.02,29.95,29.88,10,3,0,9,1,,0.00,6,Fog-Rain,106
2013-5-19,89,80,73,73,70,64,94,76,45,29.92,29.86,29.77,10,7,2,14,5,23,0.00,3,,182
2013-5-20,86,80,73,70,68,67,88,69,53,29.91,29.84,29.75,10,10,9,17,11,22,0.00,4,Thunderstorm,200
2013-5-21,75,72,66,68,63,61,94,85,65,29.92,29.83,29.72,10,9,2,21,12,32,0.68,5,Rain-Thunderstorm,197
2013-5-22,79,71,63,63,61,59,90,72,56,29.89,29.80,29.75,10,10,10,15,8,21,0.01,2,,218
2013-5-23,80,68,57,58,56,53,90,66,43,30.18,30.03,29.90,10,10,10,16,6,23,0.00,1,,337
2013-5-24,73,62,52,53,45,38,90,58,29,30.37,30.29,30.20,10,10,10,10,7,16,0.00,0,,41
2013-5-25,77,62,48,57,51,46,90,66,43,30.31,30.24,30.13,10,10,10,10,2,,0.00,0,,159
2013-5-26,84,72,59,62,58,53,87,63,44,30.17,30.12,30.04,10,10,10,10,3,18,0.00,0,,185
2013-5-27,86,74,62,67,62,53,84,64,51,30.05,29.97,29.86,10,10,10,17,6,29,0.00,2,,184
2013-5-28,87,79,71,66,63,59,76,58,41,29.99,29.92,29.88,10,10,10,24,11,33,0.00,0,,187
2013-5-29,89,78,68,67,63,58,76,58,42,30.01,29.94,29.87,10,10,10,20,10,28,0.00,2,,174
2013-5-30,88,78,69,72,68,64,89,71,49,29.95,29.90,29.85,10,9,1,23,13,36,0.47,5,Rain-Thunderstorm,179
2013-5-31,84,76,69,75,69,65,91,81,71,29.94,29.88,29.78,10,9,2,21,11,28,0.51,7,Rain-Thunderstorm,178